WetterOnline ( https://www.wetteronline.de )

Wetter aktuell Braschwitz

Aktuelles Wetter: Leipzig/Halle (136m)

6-stündlich | Neueste Meldungen
Ortszeit Temperatur Wetter
Fr, 27.11. 13:00 6.0° C fast wolkenlos
Fr, 27.11. 7:00 1.2° C bedeckt
Fr, 27.11. 1:00 2.4° C leicht bewölkt
Do, 26.11. 19:00 5.9° C bedeckt
Do, 26.11. 13:00 5.8° C bedeckt
Do, 26.11. 7:00 0.9° C wolkig
Do, 26.11. 1:00 1.4° C wolkenlos
Mi, 25.11. 19:00 2.9° C wolkenlos
Ortszeit Temperatur Wetter
Fr, 27.11. 15:30 5.2° C wolkenlos
Fr, 27.11. 15:20 5.2° C wolkenlos
Fr, 27.11. 15:10 5.5° C wolkenlos
Fr, 27.11. 15:00 5.8° C fast wolkenlos
Fr, 27.11. 14:50 5.8° C wolkenlos
Fr, 27.11. 14:40 6.1° C wolkenlos
Fr, 27.11. 14:30 6.2° C fast wolkenlos
Fr, 27.11. 14:00 6.3° C leicht bewölkt
Fr, 27.11. 13:30 6.4° C leicht bewölkt
Fr, 27.11. 13:00 6.0° C fast wolkenlos
Fr, 27.11. 12:30 5.1° C fast wolkenlos
Ortszeit Relative Feuchte Sichtweite
Fr, 27.11. 13:00 76% 19 km
Fr, 27.11. 7:00 94% 9 km
Fr, 27.11. 1:00 90% 15 km
Do, 26.11. 19:00 85% 25 km
Do, 26.11. 13:00 82% 25 km
Do, 26.11. 7:00 92% 12 km
Do, 26.11. 1:00 89% 25 km
Mi, 25.11. 19:00 85% 40 km
Ortszeit Relative Feuchte Sichtweite
Fr, 27.11. 15:30 82% 18 km
Fr, 27.11. 15:20 82% -
Fr, 27.11. 15:10 79% -
Fr, 27.11. 15:00 76% 20 km
Fr, 27.11. 14:50 76% -
Fr, 27.11. 14:40 75% -
Fr, 27.11. 14:30 74% 20 km
Fr, 27.11. 14:00 74% 20 km
Fr, 27.11. 13:30 72% 21 km
Fr, 27.11. 13:00 76% 19 km
Fr, 27.11. 12:30 78% 19 km
Ortszeit Niederschlagsmenge Niederschlagsart
Fr, 27.11. 13:00 0.0 l/m2 in 6 Std. -
Fr, 27.11. 7:00 0.1 l/m2 in 12 Std. Regen
Fr, 27.11. 1:00 0.0 l/m2 in 6 Std. -
Do, 26.11. 19:00 0.0 l/m2 in 12 Std. -
Do, 26.11. 13:00 0.0 l/m2 in 6 Std. -
Do, 26.11. 7:00 0.0 l/m2 in 12 Std. -
Do, 26.11. 1:00 0.0 l/m2 in 6 Std. -
Mi, 25.11. 19:00 0.0 l/m2 in 12 Std. -
Ortszeit Niederschlagsmenge Niederschlagsart
Fr, 27.11. 15:30 0.0 l/m2 in 1 Std. -
Fr, 27.11. 15:20 keine Meldung -
Fr, 27.11. 15:10 keine Meldung -
Fr, 27.11. 15:00 0.0 l/m2 in 1 Std. -
Fr, 27.11. 14:50 keine Meldung -
Fr, 27.11. 14:40 keine Meldung -
Fr, 27.11. 14:30 0.0 l/m2 in 1 Std. -
Fr, 27.11. 14:00 0.0 l/m2 in 1 Std. -
Fr, 27.11. 13:30 0.0 l/m2 in 1 Std. -
Fr, 27.11. 13:00 0.0 l/m2 in 1 Std. -
Fr, 27.11. 12:30 0.0 l/m2 in 1 Std. -
Ortszeit Stärke Spitze Richtung
km/h Bft. km/h Grad Sektor
Fr, 27.11. 13:00 7 2 22 210° SW
Fr, 27.11. 7:00 9 2 26 190° S
Fr, 27.11. 1:00 14 3 22 210° SW
Do, 26.11. 19:00 13 3 26 220° SW
Do, 26.11. 13:00 22 4 32 220° SW
Do, 26.11. 7:00 18 3 32 210° SW
Do, 26.11. 1:00 20 4 30 210° SW
Mi, 25.11. 19:00 18 3 29 190° S
Ortszeit Stärke Spitze Richtung
km/h Bft. km/h Grad Sektor
Fr, 27.11. 15:30 7 2 11 40° NO
Fr, 27.11. 15:20 7 2 - 40° NO
Fr, 27.11. 15:10 7 2 - 40° NO
Fr, 27.11. 15:00 4 1 11 40° NO
Fr, 27.11. 14:50 4 1 - 40° NO
Fr, 27.11. 14:40 4 1 - 20° N
Fr, 27.11. 14:30 6 1 9 30° NO
Fr, 27.11. 14:00 4 1 11 30° NO
Fr, 27.11. 13:30 4 1 11 220° SW
Fr, 27.11. 13:00 7 2 18 210° SW
Fr, 27.11. 12:30 13 3 19 170° S
Ortszeit Untergrenze Bedeckung Gattung
total tief tief mittel hoch
Fr, 27.11. 13:00 1350 m 1/8 1/8 Sc - -
Fr, 27.11. 7:00 1500 m 8/8 2/8 Sc As -
Fr, 27.11. 1:00 390 m 4/8 4/8 Sc - -
Do, 26.11. 19:00 1200 m 8/8 7/8 Cu - -
Do, 26.11. 13:00 750 m 8/8 8/8 Sc - -
Do, 26.11. 7:00 210 m 5/8 5/8 St - -
Do, 26.11. 1:00 - 0/8 0/8 - - -
Mi, 25.11. 19:00 - 0/8 0/8 - - -
Ortszeit Bedeckungsgrad in Achtel und Wolkenuntergrenze
Fr, 27.11. 15:30 keine Wolken
Fr, 27.11. 15:20 keine Wolken
Fr, 27.11. 15:10 keine Wolken
Fr, 27.11. 15:00 1(1500m)
Fr, 27.11. 14:50 keine Wolken
Fr, 27.11. 14:40 keine Wolken
Fr, 27.11. 14:30 1(1470m)
Fr, 27.11. 14:00 4(1350m)
Fr, 27.11. 13:30 3(1320m)
Fr, 27.11. 13:00 1(1350m)
Fr, 27.11. 12:30 1(1380m)
Ortszeit Luftdruck NN (hPa) Tendenz (hPa in 3 Std.)
Fr, 27.11. 13:00 1022 - 0,6
Fr, 27.11. 7:00 1022 0,0
Fr, 27.11. 1:00 1022 - 0,1
Do, 26.11. 19:00 1022 + 0,4
Do, 26.11. 13:00 1022 - 0,2
Do, 26.11. 7:00 1022 + 0,2
Do, 26.11. 1:00 1022 + 0,6
Mi, 25.11. 19:00 1020 + 0,4
Ortszeit Luftdruck NN (hPa) Tendenz (hPa in 3 Std.)
Fr, 27.11. 15:30 1022 - 0,3
Fr, 27.11. 15:20 1022 keine Meldung
Fr, 27.11. 15:10 1022 keine Meldung
Fr, 27.11. 15:00 1022 - 0,6
Fr, 27.11. 14:50 1022 keine Meldung
Fr, 27.11. 14:40 1022 keine Meldung
Fr, 27.11. 14:30 1022 - 0,7
Fr, 27.11. 14:00 1022 - 1,1
Fr, 27.11. 13:30 1022 - 0,9
Fr, 27.11. 13:00 1022 - 0,6
Fr, 27.11. 12:30 1022 - 0,2
Ortszeit Schneehöhe (cm)
Fr, 27.11. 13:00 0
Fr, 27.11. 7:00 0
Fr, 27.11. 1:00 0
Do, 26.11. 19:00 0
Do, 26.11. 13:00 0
Do, 26.11. 7:00 0
Do, 26.11. 1:00 0
Mi, 25.11. 19:00 0
Ortszeit Schneehöhe (cm)
Fr, 27.11. 15:30 0
Fr, 27.11. 15:20 0
Fr, 27.11. 15:10 0
Fr, 27.11. 15:00 0
Fr, 27.11. 14:50 0
Fr, 27.11. 14:40 0
Fr, 27.11. 14:30 0
Fr, 27.11. 14:00 0
Fr, 27.11. 13:30 0
Fr, 27.11. 13:00 0
Fr, 27.11. 12:30 0
Link zu dieser Seite / Seite empfehlen

Das Wetter in ...